Regional Weather Roundup
Issued by NWS Glasgow, MT

Home | Current Version | Previous Version | Text Only | Print | Product List | Glossary On
Versions: 1 2 3 4 5 6 7 8 9 10 11 12 13 14 15 16 17 18 19 20 21 22 23 24 25 26 27 28 29 30 31 32 33 34 35 36 37 38 39 40 41 42 43 44 45 46 47 48 49 50
180
ASUS45 KGGW 300715
RWRGGW
HOURLY REGIONAL WEATHER ROUNDUP FOR NORTHEAST MONTANA
NATIONAL WEATHER SERVICE GLASGOW MONTANA
100 AM MDT SAT JUL 30 2016

NOTE: "FAIR" INDICATES FEW OR NO CLOUDS BELOW 12,000 FEET WITH NO
SIGNIFICANT WEATHER AND/OR OBSTRUCTIONS TO VISISBILITY.

NORTHEAST MONTANA


CITY           SKY/WX    TMP DP  RH WIND       PRES   REMARKS
GLASGOW        CLEAR     62  54  74 E8        29.92F
PLENTYWOOD       N/A     61  54  77 SE2         N/A
WOLF POINT     CLEAR     62  55  77 E3        29.93F
JORDAN           N/A     63  57  81 CALM      29.94F
WINNETT          N/A     61  51  70 NE2         N/A
SIDNEY         CLEAR     58  46  64 NW3       29.94S
GLENDIVE       CLEAR     65  51  60 NE3       29.96S
MALTA            N/A     71  59  65 SE6         N/A
OPHEIM           N/A     63  54  72 S1        29.71F

FORT PECK REPORTS


CITY           SKY/WX    TMP DP  RH WIND       PRES   REMARKS
FORT PECK        N/A     70  58  65 E8          N/A
THE PINES        N/A     68  56  65 SE3         N/A

SOUTHEAST MONTANA


CITY           SKY/WX    TMP DP  RH WIND       PRES   REMARKS
BILLINGS       CLEAR     71  49  45 N3        29.96F
MILES CITY     CLEAR     67  54  63 NE5       29.94F
BAKER          CLEAR     60  56  86 S3        29.98F
LIVINGSTON     CLEAR     68  47  46 E13       30.00S

CENTRAL MONTANA


CITY           SKY/WX    TMP DP  RH WIND       PRES   REMARKS
HAVRE          CLEAR     68  54  60 CALM      29.87F
LEWISTOWN      NOT AVBL
GREAT FALLS    CLEAR     65  48  54 SE5       29.90F
CUT BANK         N/A     64  51  62 S6        29.91F
HELENA         CLEAR     71  46  40 W7        29.92F
BUTTE          CLEAR     62  41  46 SE3       30.04F
BOZEMAN        CLEAR     66  50  56 W7        29.97F

WESTERN MONTANA


CITY           SKY/WX    TMP DP  RH WIND       PRES   REMARKS
MISSOULA       CLEAR     67  46  47 CALM      29.88S
KALISPELL      NOT AVBL

NORTH DAKOTA


CITY           SKY/WX    TMP DP  RH WIND       PRES   REMARKS
WILLISTON      CLEAR     64  57  78 E3        29.94F
DICKINSON      CLEAR     58  56  93 S7        29.93F
MINOT          PTCLDY    67  61  81 SE5       29.94F
BISMARCK       RAIN      66  62  87 SE7       29.95F FOG

SOUTHERN SASKATCHEWAN


CITY           SKY/WX    TMP DP  RH WIND       PRES   REMARKS
REGINA         PTCLDY    59  57  94 E7        29.90F
ESTEVAN        CLEAR     59  55  88 S5        29.93F
SWIFT CURRENT  CLEAR     59  57  94 S8        29.91F





USA.gov is the U.S. government's official web portal to all federal, state and local government web resources and services.